Flag for Canada Weather past 2 weeks in Halton Hills, Ontario, Canada

Now
82 °F

Passing clouds.


Feels Like: 84 °F
Forecast: 60 / 79 °F
Wind: 8 mph from West

Location: Toronto Pearson International Airport

Current Time: Aug 31, 2015 at 4:25:49 PM

Latest Report: Aug 31, 2015 at 3:00 PM


Visibility: 15 mi

Pressure: 30.00 "Hg

Humidity: 55%

Dew point: 64 °F

Location of Halton HillsLocation

Historic Weather in Halton Hills — Graph

°F

Halton Hills temperature yesterday

Maximum temperature yesterday: 77 °F (at 1:00 PM)
Minimum temperature yesterday: 66 °F (at 6:00 AM)
Average temperature yesterday: 72 °F

Past Weeks' High & Low Weather Summary

 TemperatureHumidityPressure
High90 °F (Aug 17, 3:00 PM)100% (Aug 19, 5:03 AM)30.22 "Hg (Aug 19, 5:03 AM)
Low54 °F (Aug 28, 5:00 AM)43% (Aug 17, 5:00 PM)29.71 "Hg (Aug 20, 6:00 AM)
Average69 °F72%29.99 "Hg
* Reported Aug 16 3:00 PM — Aug 31 3:00 PM, Halton Hills, Weather by CustomWeather, © 2015

Note: Actual official high and low records may vary slightly from our data, if they occured in-between our weather recording intervals... More about our weather records

Advertising

Halton Hills weather history for previous 24 hours

 ConditionsComfort  
Time TempWeatherWind HumidityBarometerVisibility
3:00 PM
Mon, Aug 31
82 °FPassing clouds.8 mph55%30.00 "Hg15 mi
2:00 PM82 °FPassing clouds.10 mph55%30.02 "Hg15 mi
1:00 PM81 °FPassing clouds.13 mph58%30.02 "Hg15 mi
12:00 PM79 °FScattered clouds.12 mph65%30.03 "Hg15 mi
11:00 AM77 °FScattered clouds.10 mph69%30.04 "Hg12 mi
10:00 AM75 °FPassing clouds.13 mph74%30.03 "Hg10 mi
9:00 AM70 °FSunny.9 mph88%30.03 "Hg8 mi
8:00 AM68 °FFog.7 mph88%30.02 "Hg6 mi
7:00 AM66 °FFog.7 mph94%30.01 "Hg6 mi
6:00 AM64 °FPassing clouds.5 mph94%29.99 "Hg12 mi
5:00 AM64 °FPassing clouds.5 mph88%29.99 "Hg15 mi
4:00 AM66 °FClear.5 mph88%29.99 "Hg15 mi
3:00 AM66 °FClear.6 mph88%29.99 "Hg15 mi
2:00 AM68 °FClear.3 mph88%30.00 "Hg15 mi
1:00 AM70 °FClear.7 mph83%30.00 "Hg15 mi
12:00 AM70 °FClear.7 mph83%30.00 "Hg15 mi
11:00 PM
Sun, Aug 30
72 °FPassing clouds.2 mph78%30.00 "Hg15 mi
10:00 PM72 °FPassing clouds.5 mph83%30.01 "Hg15 mi
9:00 PM72 °FPassing clouds.5 mph78%30.01 "Hg15 mi
8:00 PM73 °FBroken clouds.7 mph65%30.00 "Hg15 mi
7:00 PM75 °FBroken clouds.9 mph61%30.00 "Hg15 mi
6:00 PM77 °FPartly sunny.9 mph57%30.00 "Hg15 mi
5:00 PM77 °FPartly sunny.8 mph61%30.01 "Hg15 mi
4:00 PM77 °FPartly sunny.7 mph61%30.02 "Hg15 mi
Weather by CustomWeather, © 2015

See weather overviewHow to use our weather pages